This demonstration page uses our WeatherBlox Daily Observations layout. Learn more.

Hourly Observations for May 7, 2015

Temp ( °F °C ) Dew Point ( °F °C ) Humidity (%) Winds ( mph kmh ) Pressure ( in mb ) Visibility ( mi km ) Precip ( " mm )
12:15 am 00:15 Clear 58 14.6 56 13.5 93 93 S 6 9 29.59 1002 10 16.0934 0 0
12:35 am 00:35 Clear 58 14.6 56 13.2 91 91 S 8 13 29.59 1002 10 16.0934 0 0
12:55 am 00:55 Clear 60 15.5 56 13.6 89 89 S 12 19 29.62 1003 10 16.0934 0 0
1:15 am 01:15 Clear 61 15.9 58 14.4 91 91 S 13 20 29.62 1003 10 16.0934 0 0
1:35 am 01:35 Clear 62 16.4 59 15 91 91 SSW 15 24 29.62 1003 10 16.0934 0 0
1:55 am 01:55 Clear 61 16.3 59 15 92 92 SW 13 20 29.62 1003 10 16.0934 0 0
2:15 am 02:15 Clear 61 16.1 58 14.5 90 90 SW 9 15 29.65 1004 10 16.0934 0 0
2:35 am 02:35 Clear 61 16.1 56 13.5 85 85 WNW 8 13 29.56 1001 10 16.0934 0 0
2:55 am 02:55 Clear 61 16 56 13.4 85 85 SW 8 13 29.62 1003 10 16.0934 0 0
3:15 am 03:15 Partly Cloudy 60 15.5 56 13.5 88 88 SSW 7 11 29.62 1003 10 16.0934 0 0
3:35 am 03:35 Partly Cloudy 59 15.2 56 13.2 88 88 SW 8 13 29.62 1003 10 16.0934 0 0
3:55 am 03:55 Mostly Cloudy 60 15.4 56 13.3 87 87 WSW 8 13 29.62 1003 10 16.0934 0 0
4:15 am 04:15 Mostly Cloudy 60 15.6 56 13.2 86 86 SW 9 15 29.65 1004 10 16.0934 0 0
4:35 am 04:35 Mostly Cloudy 60 15.5 56 13.1 86 86 WSW 12 19 29.65 1004 10 16.0934 0 0
4:55 am 04:55 Mostly Cloudy 59 15.2 55 13 87 87 WSW 14 22 29.68 1005 10 16.0934 0 0
5:15 am 05:15 Mostly Cloudy 59 15.1 55 13 87 87 WSW 12 19 29.68 1005 10 16.0934 0 0
5:35 am 05:35 Partly Cloudy 58 14.7 55 12.8 88 88 WSW 14 22 29.68 1005 10 16.0934 0 0
5:55 am 05:55 Mostly Cloudy 58 14.6 55 12.5 87 87 WSW 14 22 29.68 1005 10 16.0934 0 0
6:15 am 06:15 Mostly Cloudy 57 14.1 53 11.8 86 86 WSW 15 24 29.71 1006 10 16.0934 0 0
6:35 am 06:35 Partly Cloudy 56 13.5 52 11.2 86 86 W 15 24 29.71 1006 10 16.0934 0 0
6:55 am 06:55 Partly Cloudy 56 13.1 52 11 87 87 W 13 20 29.74 1007 10 16.0934 0 0
7:15 am 07:15 Mostly Cloudy 56 13.2 52 11.1 87 87 W 13 20 29.74 1007 10 16.0934 0 0
7:35 am 07:35 Mostly Cloudy 56 13.5 53 11.5 88 88 WNW 9 15 29.71 1006 10 16.0934 0 0
7:55 am 07:55 Partly Cloudy 57 13.7 53 11.5 87 87 NW 13 20 29.71 1006 10 16.0934 0 0
8:15 am 08:15 Partly Cloudy 57 13.8 54 12 89 89 WSW 12 19 29.74 1007 10 16.0934 0 0
8:35 am 08:35 Partly Cloudy 56 13.6 53 11.6 88 88 WNW 12 19 29.74 1007 10 16.0934 0 0
8:55 am 08:55 Partly Cloudy 58 14.2 54 12 87 87 WNW 12 19 29.74 1007 10 16.0934 0 0
9:15 am 09:15 Cloudy 58 14.5 53 11.7 83 83 WNW 14 22 29.74 1007 10 16.0934 0 0
9:35 am 09:35 Cloudy 58 14.5 53 11.7 83 83 NW 9 15 29.74 1007 10 16.0934 0 0
9:55 am 09:55 Partly Cloudy 59 15 53 11.4 79 79 NW 14 22 29.77 1008 10 16.0934 0 0
10:15 am 10:15 Mostly Cloudy 59 15 52 11.2 78 78 NW 13 20 29.77 1008 10 16.0934 0 0
10:35 am 10:35 Mostly Cloudy 60 15.3 52 11.2 77 77 NW 13 20 29.77 1008 10 16.0934 0 0
10:55 am 10:55 Cloudy 62 16.4 53 11.7 74 74 WNW 12 19 29.8 1009 10 16.0934 0 0
11:15 am 11:15 Cloudy 61 16.1 52 11.1 72 72 NW 14 22 29.8 1009 10 16.0934 0 0
11:35 am 11:35 Mostly Cloudy 61 16.3 51 10.6 69 69 NW 16 26 29.8 1009 10 16.0934 0 0
11:55 am 11:55 Partly Cloudy 63 17.1 51 10.8 67 67 NW 12 19 29.83 1010 10 16.0934 0 0
12:15 pm 12:15 Partly Cloudy 64 17.7 52 10.9 65 65 WNW 12 19 29.83 1010 10 16.0934 0 0
12:35 pm 12:35 Partly Cloudy 64 18 51 10.8 63 63 NNW 13 20 29.83 1010 10 16.0934 0 0
12:55 pm 12:55 Partly Cloudy 65 18.6 52 11.1 62 62 WNW 15 24 29.8 1009 10 16.0934 0 0
1:15 pm 13:15 Partly Cloudy 65 18.3 51 10.5 61 61 NW 12 19 29.83 1010 10 16.0934 0 0
1:35 pm 13:35 Partly Cloudy 65 18.3 51 10.6 61 61 NW 15 24 29.83 1010 10 16.0934 0 0
1:55 pm 13:55 Partly Cloudy 65 18.5 51 10.5 60 60 NW 14 22 29.77 1008 10 16.0934 0 0
2:15 pm 14:15 Partly Cloudy 66 18.7 51 10.5 59 59 NNW 13 20 29.77 1008 10 16.0934 0 0
2:35 pm 14:35 Partly Cloudy 66 19 52 10.9 60 60 NNW 12 19 29.8 1009 10 16.0934 0 0
2:55 pm 14:55 Sunny 66 19 51 10.8 59 59 NW 7 11 29.8 1009 10 16.0934 0 0
3:15 pm 15:15 Sunny 67 19.4 51 10.6 57 57 NNW 10 17 29.8 1009 10 16.0934 0 0
3:35 pm 15:35 Partly Cloudy 68 19.8 51 10.5 55 55 NNW 7 11 29.8 1009 10 16.0934 0 0
3:55 pm 15:55 Partly Cloudy 68 20.1 51 10.4 54 54 NW 13 20 29.8 1009 10 16.0934 0 0
4:15 pm 16:15 Sunny 68 20 50 10.2 53 53 NW 13 20 29.8 1009 10 16.0934 0 0
4:35 pm 16:35 Partly Cloudy 69 20.3 50 10 52 52 NNW 12 19 29.8 1009 10 16.0934 0 0
4:55 pm 16:55 Partly Cloudy 68 19.8 50 10.1 54 54 NNW 9 15 29.8 1009 10 16.0934 0 0
5:15 pm 17:15 Partly Cloudy 68 20.1 50 10 52 52 NNW 8 13 29.8 1009 10 16.0934 0 0
5:35 pm 17:35 Partly Cloudy 68 20 49 9.7 52 52 N 9 15 29.8 1009 10 16.0934 0 0
5:55 pm 17:55 Partly Cloudy 67 19.4 49 9.5 53 53 NNW 9 15 29.8 1009 10 16.0934 0 0
6:15 pm 18:15 Partly Cloudy 67 19.2 49 9.6 54 54 N 10 17 29.8 1009 10 16.0934 0 0
6:35 pm 18:35 Mostly Cloudy 67 19.3 49 9.4 53 53 NNW 10 17 29.83 1010 10 16.0934 0 0
6:55 pm 18:55 Mostly Cloudy 65 18.5 49 9.5 56 56 N 14 22 29.83 1010 10 16.0934 0 0
7:15 pm 19:15 Cloudy 63 17.3 49 9.4 60 60 NNE 14 22 29.85 1011 10 16.0934 0 0
7:35 pm 19:35 Cloudy 62 16.7 49 9.2 61 61 N 15 24 29.88 1012 10 16.0934 0 0
7:55 pm 19:55 Mostly Cloudy 61 16 48 9 63 63 N 16 26 29.88 1012 10 16.0934 0 0
8:15 pm 20:15 Partly Cloudy 60 15.5 48 8.8 65 65 N 15 24 29.88 1012 10 16.0934 0 0
8:35 pm 20:35 Partly Cloudy 58 14.5 47 8.5 67 67 N 15 24 29.91 1013 10 16.0934 0 0
8:55 pm 20:55 Clear 57 13.7 47 8.5 71 71 N 13 20 29.91 1013 10 16.0934 0 0
9:15 pm 21:15 Partly Cloudy 55 12.9 47 8.3 74 74 N 10 17 29.94 1014 10 16.0934 0 0
9:35 pm 21:35 Mostly Cloudy 54 12.2 47 8.3 77 77 N 12 19 29.97 1015 10 16.0934 0 0
9:55 pm 21:55 Partly Cloudy 54 12 47 8.3 78 78 N 12 19 29.97 1015 10 16.0934 0 0
10:15 pm 22:15 Clear 53 11.7 46 8 78 78 N 13 20 29.97 1015 10 16.0934 0 0
10:35 pm 22:35 Partly Cloudy 53 11.5 46 8 79 79 N 12 19 30 1016 10 16.0934 0 0
10:55 pm 22:55 Mostly Cloudy 52 11.2 46 8 81 81 N 9 15 30 1016 10 16.0934 0 0
11:15 pm 23:15 Mostly Cloudy 53 11.4 46 7.8 79 79 N 12 19 30 1016 10 16.0934 0 0
11:35 pm 23:35 Mostly Cloudy 52 11 46 7.5 79 79 N 9 15 30 1016 10 16.0934 0 0
11:55 pm 23:55 Partly Cloudy 51 10.8 46 7.5 80 80 N 14 22 30 1016 10 16.0934 0 0

Powered by AerisWeather